Location: Gugi
(45.4667°N, 11.1000°E)
Time: 15:17:38
(UTC+00:00)

Cosmos 1666 Rocket - Pass Details

Date: 17 November 2019
Orbit: 603 x 634 km, 82.5° (Epoch: 15 December)

Event Time Altitude Azimuth Distance (km) Brightness Sun altitude
Rises 16:55:10 0° 353° (N) 2,897 6.9 -12.5°
Reaches altitude 10° 16:57:25 10° 356° (N) 1,982 6.0 -12.9°
Maximum altitude 17:01:47 66° 79° (E) 667 3.4 -13.6°
Drops below altitude 10° 17:06:05 10° 163° (SSE) 1,950 6.1 -14.4°
Sets 17:08:17 0° 166° (SSE) 2,846 6.9 -14.8°
